[[{"header":{"parameterUnit":"m.s-1","parameterCategory":1,"la1":30.2991,"la2":30.254,"lo1":-89.0895,"lo2":-89.0444,"dy":0.0017,"dx":0.0017,"nx":28,"ny":28,"refTime":"2024-05-09T21:00:00:Z","depth":0,"parameterNumber":2,"parameterNumberName":"U-component_of_WINDS"},"data":[0,0,0,0,0,0,0,0,0,0,0,0,0,0,0,0,0,0,0,0,0,0,0,0,0,0,0,0,0,0,0,0,0,0,0,0,0,0,0,0,0,0,0,0,0,0,0,0,0,0,0,0,0,0,0,0,0,0,-0.6358,-0.6358,0,-0.6319,-0.6318,-0.6318,-0.6254,-0.6253,-0.6252,-0.6251,-0.6211,-0.6211,-0.6211,0,0,0,0,0,0,0,0,0,0,0,0,0,-0.6379,-0.6379,-0.6358,-0.6358,-0.6357,-0.6319,-0.6318,-0.6318,-0.6254,-0.6253,-0.6251,-0.625,-0.6211,-0.6211,-0.6211,0,0,0,0,0,0,0,0,0,0,0,0,0,-0.6358,-0.6379,-0.6358,-0.6321,-0.6317,-0.6319,-0.6318,-0.6317,-0.6255,-0.6253,-0.6251,-0.6249,-0.6211,-0.6211,-0.6211,-0.6246,0,0,-0.6211,-0.6211,0,0,0,0,0,0,0,0,-0.6359,-0.6357,-0.6327,-0.6324,-0.6319,-0.6289,-0.6311,-0.6294,-0.6255,-0.6278,-0.6251,-0.6249,-0.6238,-0.6236,-0.6232,-0.6244,-0.6242,-0.6211,-0.6211,-0.6211,-0.6211,0,0,0,0,0,0,0,-0.6361,-0.6358,-0.6343,-0.6327,-0.6322,-0.6306,-0.6301,-0.6307,-0.6269,-0.6276,-0.6272,-0.6268,-0.6236,-0.6233,-0.6231,-0.6242,-0.6211,-0.6211,-0.6211,-0.6211,-0.6279,-0.6281,0,0,0,0,0,0,-0.6368,-0.636,-0.6344,-0.6341,-0.6335,-0.6307,-0.6302,-0.6301,-0.6268,-0.6262,-0.6269,-0.6265,-0.6233,-0.6231,-0.6229,-0.6268,-0.6211,-0.6211,-0.6211,-0.6278,-0.628,-0.6282,0,0,0,0,0,0,-0.6368,-0.6367,-0.6345,-0.6349,-0.6345,-0.6309,-0.6308,-0.6301,-0.6297,-0.6263,-0.6256,-0.6273,-0.6232,-0.6229,-0.6242,-0.6266,-0.6211,-0.6211,-0.6275,-0.6278,-0.6281,-0.6346,0,0,0,0,0,0,-0.6369,-0.6367,-0.638,-0.635,-0.6346,-0.6359,-0.631,-0.6301,-0.6298,-0.6292,-0.6265,-0.6258,-0.623,-0.6242,-0.6242,-0.6265,-0.6211,-0.6273,-0.6277,-0.628,-0.6341,-0.635,-0.6358,0,0,0,0,0,-0.637,-0.64,-0.6381,-0.638,-0.6361,-0.636,-0.6358,-0.6325,-0.63,-0.6313,-0.629,-0.6259,-0.6263,-0.6244,-0.6243,-0.6266,-0.6272,-0.6276,-0.628,-0.6338,-0.6349,-0.6358,0,0,0,0,0,0,-0.6435,-0.6396,-0.6374,-0.6396,-0.6382,-0.635,-0.6365,-0.6337,-0.633,-0.6325,-0.6284,-0.6279,-0.6297,-0.6283,-0.6262,-0.6298,-0.6263,-0.6267,-0.6307,-0.6317,-0.6325,-0.6328,-0.6211,0,0,0,0,0,-0.6451,-0.6454,-0.642,-0.6442,-0.6436,-0.6402,-0.64,-0.6376,-0.636,-0.6354,-0.6333,-0.6319,-0.6316,-0.6316,-0.6312,-0.6339,-0.6332,-0.6354,-0.6363,-0.637,-0.6374,-0.6386,-0.6396,-0.6295,-0.6295,-0.6295,0,0,-0.6486,-0.6465,-0.6469,-0.6455,-0.6441,-0.6445,-0.6397,-0.6403,-0.6406,-0.6355,-0.6366,-0.635,-0.6331,-0.6351,-0.6358,-0.634,-0.64,-0.6375,-0.6381,-0.6381,-0.6392,-0.6401,-0.641,-0.6298,-0.6297,-0.6297,0,0,-0.6551,-0.6535,-0.6552,-0.6539,-0.6519,-0.6496,-0.65,-0.6472,-0.6459,-0.6469,-0.6431,-0.6433,-0.643,-0.6419,-0.6412,-0.6472,-0.6443,-0.6472,-0.6516,-0.6529,-0.6537,-0.6544,-0.6565,-0.6573,-0.6476,-0.6477,-0.6477,0,-0.6597,-0.66,-0.6564,-0.6572,-0.6567,-0.6521,-0.6537,-0.6527,-0.6507,-0.6504,-0.6483,-0.6478,-0.6463,-0.6479,-0.6494,-0.649,-0.6493,-0.6475,-0.6539,-0.6545,-0.6551,-0.6571,-0.6579,-0.648,-0.648,-0.6479,-0.6479,0,-0.6657,-0.6661,-0.6677,-0.6658,-0.6654,-0.6667,-0.6633,-0.6633,-0.6609,-0.6588,-0.6599,-0.6578,-0.6569,-0.6571,-0.6548,-0.6584,-0.6573,-0.6546,-0.6509,-0.6565,-0.6583,-0.659,-0.6485,-0.6484,-0.6483,-0.6482,0,0,-0.6762,-0.6723,-0.673,-0.672,-0.6695,-0.6696,-0.6707,-0.6698,-0.6699,-0.6687,-0.6694,-0.6692,-0.6667,-0.666,-0.6635,-0.6646,-0.6695,-0.6618,-0.6617,-0.6633,-0.6733,-0.6754,-0.6763,-0.6675,-0.6677,-0.6678,-0.6734,0,-0.6822,-0.6837,-0.6805,-0.6828,-0.683,-0.6786,-0.6795,-0.678,-0.6761,-0.676,-0.6738,-0.6738,-0.6705,-0.67,-0.6709,-0.6687,-0.6714,-0.6682,-0.6682,-0.6682,-0.6688,-0.6772,-0.6794,-0.6849,-0.6741,-0.6742,-0.6743,0,-0.6894,-0.6885,-0.6908,-0.688,-0.688,-0.6889,-0.6878,-0.6878,-0.686,-0.6845,-0.6837,-0.6807,-0.6815,-0.6779,-0.6789,-0.6768,-0.6766,-0.6755,-0.6756,-0.6755,-0.6716,-0.6773,-0.6865,-0.6874,-0.6754,-0.6753,-0.6752,0,-0.6968,-0.6961,-0.6974,-0.6968,-0.6936,-0.6943,-0.693,-0.691,-0.6907,-0.6897,-0.6894,-0.6886,-0.6881,-0.6875,-0.6844,-0.6821,-0.6858,-0.682,-0.6845,-0.6846,-0.6855,-0.6855,-0.6948,-0.6854,-0.6854,-0.6854,-0.6854,0,-0.7038,-0.7054,-0.7007,-0.7015,-0.7032,-0.6994,-0.7012,-0.6994,-0.6977,-0.6981,-0.6942,-0.6946,-0.6905,-0.6904,-0.688,-0.6892,-0.689,-0.6878,-0.6871,-0.6882,-0.6883,-0.688,-0.6875,-0.6856,-0.6855,-0.6855,-0.6855,0,-0.7124,-0.7093,-0.7104,-0.7073,-0.7066,-0.7079,-0.7052,-0.7058,-0.7036,-0.7042,-0.7041,-0.7006,-0.7004,-0.6972,-0.6962,-0.6946,-0.6967,-0.6953,-0.6974,-0.6969,-0.6997,-0.6995,-0.7091,-0.7101,-0.7001,-0.7002,-0.7002,0,-0.7171,-0.7182,-0.7152,-0.7151,-0.714,-0.714,-0.7136,-0.71,-0.7097,-0.7077,-0.7086,-0.708,-0.7074,-0.7072,-0.7046,-0.7038,-0.7024,-0.7058,-0.7023,-0.7032,-0.7024,-0.7024,-0.7025,-0.7066,-0.7067,-0.7068,-0.7069,0,-0.7257,-0.7241,-0.7237,-0.7228,-0.7224,-0.7215,-0.7203,-0.7205,-0.7165,-0.7164,-0.7161,-0.7156,-0.7146,-0.7141,-0.7129,-0.7115,-0.7086,-0.708,-0.7086,-0.7097,-0.7108,-0.7102,-0.6994,-0.7078,-0.7078,-0.7077,-0.7076,-0.7076,-0.7325,-0.7332,-0.7312,-0.7309,-0.7296,-0.7286,-0.729,-0.7268,-0.7265,-0.7255,-0.7233,-0.7233,-0.7214,-0.7195,-0.7183,-0.7183,-0.7165,-0.7173,-0.7175,-0.7178,-0.7183,-0.7108,-0.718,-0.718,-0.718,-0.718,-0.7179,0,-0.7409,-0.7394,-0.7391,-0.7376,-0.7373,-0.7345,-0.7331,-0.733,-0.7331,-0.7316,-0.731,-0.7307,-0.7301,-0.7274,-0.7266,-0.7271,-0.7257,-0.727,-0.7269,-0.7266,-0.72,-0.7196,-0.7281,-0.7281,-0.7281,-0.7281,-0.7281,-0.7281,-0.7453,-0.7464,-0.7446,-0.7451,-0.7435,-0.7435,-0.7429,-0.742,-0.7407,-0.7405,-0.74,-0.7383,-0.7363,-0.7353,-0.7346,-0.7338,-0.7337,-0.7355,-0.7343,-0.7281,-0.7271,-0.7262,-0.7258,-0.7355,-0.7355,-0.7409,-0.741,-0.741]},{"header":{"parameterUnit":"m.s-1","parameterCategory":1,"la1":30.2991,"la2":30.254,"lo1":-89.0895,"lo2":-89.0444,"dy":0.0017,"dx":0.0017,"nx":28,"ny":28,"refTime":"2024-05-09T21:00:00:Z","depth":0,"parameterNumber":3,"parameterNumberName":"V-component_of_WINDS"},"data":[0,0,0,0,0,0,0,0,0,0,0,0,0,0,0,0,0,0,0,0,0,0,0,0,0,0,0,0,0,0,0,0,0,0,0,0,0,0,0,0,0,0,0,0,0,0,0,0,0,0,0,0,0,0,0,0,0,0,4.9634,4.9635,0,4.9765,4.9767,4.9768,4.9824,4.9824,4.9823,4.9823,4.9956,4.996,4.9963,0,0,0,0,0,0,0,0,0,0,0,0,0,4.9432,4.9436,4.9634,4.9635,4.9637,4.9765,4.9767,4.9769,4.9824,4.9824,4.9823,4.9823,4.9955,4.9959,4.9964,0,0,0,0,0,0,0,0,0,0,0,0,0,4.9537,4.9437,4.9634,4.968,4.9686,4.9765,4.9767,4.9769,4.9824,4.9824,4.9823,4.9823,4.9953,4.9959,4.9964,5.0006,0,0,4.9981,4.9984,0,0,0,0,0,0,0,0,4.9531,4.9545,4.9672,4.9677,4.9683,4.9778,4.9745,4.9849,4.9824,4.9771,4.9823,4.9823,4.9897,4.9907,4.9932,5.0012,5.0018,4.9982,4.9985,4.9988,4.9989,0,0,0,0,0,0,0,4.9524,4.9539,4.9686,4.9673,4.9681,4.9695,4.971,4.9764,4.9834,4.9776,4.978,4.9795,4.99,4.9927,4.9936,5.002,4.9982,4.9987,4.999,4.9992,5.0146,5.0146,0,0,0,0,0,0,4.9509,4.9533,4.9682,4.969,4.9605,4.9699,4.9715,4.9748,4.9834,4.9847,4.9795,4.9797,4.9917,4.9929,4.9941,4.9998,4.9988,4.9993,4.9996,5.0145,5.0146,5.0146,0,0,0,0,0,0,4.9504,4.9522,4.9676,4.9613,4.9633,4.9703,4.9739,4.9751,4.9778,4.9849,4.9861,4.981,4.9918,4.9933,4.9991,5.0004,4.9996,5.0001,5.0144,5.0145,5.0146,5.0112,0,0,0,0,0,0,4.9498,4.952,4.9536,4.9613,4.9637,4.9723,4.974,4.9753,4.9787,4.9791,4.9866,4.9878,4.9919,4.9982,4.9996,5.0011,5.0005,5.0143,5.0145,5.0146,5.0112,5.0111,5.0111,0,0,0,0,0,4.9491,4.9519,4.9536,4.9554,4.9658,4.9724,4.9738,4.9784,4.9788,4.9805,4.9852,4.9875,5.0,4.9987,5.0004,5.0021,5.0143,5.0144,5.0146,5.0112,5.0111,5.0111,0,0,0,0,0,0,4.944,4.953,4.955,4.9604,4.9656,4.9733,4.9756,4.9782,4.9833,4.9834,4.989,4.9906,4.996,4.9996,4.9981,5.0068,5.0073,5.0078,5.0042,5.0042,5.0042,5.0032,5.001,0,0,0,0,0,4.9436,4.9482,4.9558,4.9598,4.9624,4.9685,4.9715,4.9748,4.9804,4.9826,4.9876,4.9929,4.9981,5.0014,5.0065,5.0118,5.0136,5.0138,5.0137,5.0137,5.014,5.0174,5.0177,5.0152,5.0152,5.0151,0,0,4.9426,4.9481,4.9506,4.9589,4.9634,4.9681,4.9703,4.9751,4.9787,4.9833,4.9891,4.993,4.9994,5.005,5.0078,5.0082,5.0152,5.0139,5.0137,5.0142,5.0176,5.0179,5.0181,5.0153,5.0152,5.0152,0,0,4.9433,4.9478,4.9518,4.9563,4.9631,4.9672,4.9682,4.9757,4.9785,4.9845,4.9881,4.9925,5.0012,5.0057,5.0091,5.012,5.0145,5.0135,5.0132,5.0165,5.0167,5.0169,5.0181,5.0185,5.0138,5.0138,5.0138,0,4.9412,4.9484,4.9535,4.9583,4.962,4.9666,4.9708,4.9749,4.9829,4.9854,4.9858,4.9971,5.0017,5.0086,5.0094,5.0119,5.0133,5.0126,5.0162,5.0165,5.0168,5.018,5.0185,5.0137,5.0137,5.0137,5.0137,0,4.9457,4.9507,4.9531,4.961,4.965,4.9694,4.9753,4.9787,4.9817,4.9859,4.9921,4.9978,5.0043,5.0062,5.009,5.0137,5.0138,5.0152,5.0158,5.0168,5.0181,5.0186,5.0135,5.0135,5.0136,5.0136,0,0,4.9432,4.9542,4.955,4.9588,4.9668,4.9708,4.9756,4.9821,4.985,4.9905,4.9948,5.0023,5.0038,5.0076,5.0111,5.0139,5.0162,5.015,5.0153,5.0152,5.022,5.0209,5.0214,5.018,5.0181,5.0181,5.0215,0,4.945,4.9538,4.9588,4.9656,4.9704,4.9751,4.9793,4.9847,4.9888,4.9936,4.9982,5.0035,5.0049,5.0073,5.0104,5.0153,5.0177,5.0151,5.0221,5.0223,5.0204,5.022,5.0209,5.0237,5.022,5.0221,5.0222,0,4.9483,4.9539,4.9612,4.9691,4.9713,4.975,4.9816,4.986,4.9924,4.9953,4.9998,5.0034,5.0088,5.0091,5.0168,5.0149,5.0181,5.021,5.0213,5.0221,5.0222,5.023,5.0247,5.0252,5.023,5.0229,5.0228,0,4.946,4.9554,4.9611,4.9642,4.9734,4.9759,4.9799,4.9863,4.99,4.9958,4.9983,5.0046,5.0081,5.0129,5.0182,5.0179,5.0254,5.0261,5.028,5.0279,5.0293,5.0292,5.0317,5.0313,5.0313,5.0313,5.0313,0,4.9475,4.9518,4.9602,4.9637,4.9688,4.9746,4.9795,4.9838,4.9895,4.9941,4.9984,5.0026,5.0092,5.0143,5.0184,5.0243,5.0258,5.0283,5.0294,5.028,5.0277,5.0301,5.0301,5.0314,5.0314,5.0313,5.0313,0,4.9457,4.9515,4.958,4.9664,4.9686,4.972,4.9792,4.9829,4.9874,4.9931,4.9947,5.0018,5.008,5.0138,5.022,5.0248,5.0308,5.0321,5.0286,5.0292,5.0309,5.0307,5.0351,5.0361,5.0349,5.0349,5.0349,0,4.9463,4.9498,4.9586,4.9621,4.966,4.9714,4.9753,4.9813,4.9852,4.993,4.9958,5.0024,5.0079,5.0177,5.0236,5.03,5.0315,5.0327,5.0325,5.0311,5.0318,5.0315,5.032,5.0325,5.0325,5.0325,5.0325,0,4.9469,4.9497,4.9552,4.9619,4.9665,4.972,4.9776,4.9802,4.9872,4.9915,4.998,5.0023,5.0109,5.0175,5.0246,5.0288,5.0319,5.0326,5.0334,5.032,5.0299,5.0312,5.0285,5.0324,5.0324,5.0324,5.0324,5.0324,4.9464,4.9498,4.9567,4.9628,4.9678,4.9731,4.977,4.9822,4.9877,4.9952,4.9985,5.0051,5.0118,5.0218,5.026,5.0314,5.032,5.0331,5.0335,5.0337,5.0335,5.0291,5.0327,5.0327,5.0327,5.0327,5.0327,0,4.9473,4.9521,4.9576,4.9655,4.9705,4.9731,4.9796,4.9835,4.9894,4.9954,5.0009,5.0086,5.0151,5.0216,5.0285,5.0316,5.0332,5.0332,5.0331,5.0341,5.0324,5.0311,5.0318,5.0318,5.0318,5.0318,5.0318,5.0318,4.9483,4.9544,4.9581,4.9668,4.9716,4.9782,4.9817,4.9867,4.9916,5.0,5.0055,5.0098,5.0161,5.0236,5.0298,5.0316,5.034,5.0336,5.0358,5.0341,5.0341,5.0341,5.0329,5.034,5.034,5.037,5.037,5.0371]}]]